Tarawa Terrace, NC

11:45 PM EST on February 07, 2016 (GMT -0500)
New River Marine Corps Air Station

Weather History for KNCA - November, 2011

Change the Weather History Date:

Wednesday, November 2, 2011

  Actual Average Record
Temperature  
Mean Temperature 52 °F -  
Max Temperature 64 °F 68 °F 82 °F (2004)
Min Temperature 39 °F 45 °F 36 °F (2000)
Degree Days  
Heating Degree Days 14    
Growing Degree Days 2 (Base 50)    
Moisture  
Dew Point 40 °F    
Average Humidity 73    
Maximum Humidity 97    
Minimum Humidity 37    
Precipitation  
Precipitation 0.00 in - - ()
Sea Level Pressure  
Sea Level Pressure 30.35 in    
Wind  
Wind Speed 4 mph (NNE)    
Max Wind Speed 12 mph    
Max Gust Speed 18 mph    
Visibility 10 miles    
Events      
Averages and records for this station are not official NWS values.
T = Trace of Precipitation, MM = Missing Value Source: NWS Daily Summary

Daily Weather History Graph

Daily Weather History Graph

Search for Another Location

Airport or City:

Trip Planner

Search our weather history database for the weather conditions in past years. The results will help you decide how hot, cold, wet, or windy it might be!

Date:

Astronomy

Nov. 02, 2011 Rise Set
Actual Time 7:30 AM EDT 6:15 PM EDT
Civil Twilight 7:04 AM EDT 6:41 PM EDT
Nautical Twilight 6:35 AM EDT 7:11 PM EDT
Astronomical Twilight 6:05 AM EDT 7:40 PM EDT
Moon 1:49 PM EDT (11/2) No Moon Set
Length of Visible Light 11h 36m
Length of Day
10h 44m
Waxing Crescent, 50% of the Moon is Illuminated
Nov 2
Waxing Crescent
Nov 2
First Quarter
Nov 10
Full
Nov 18
Last Quarter
Nov 25
New

Hourly Weather History & Observations

Time (EDT) Temp. Windchill Dew Point Humidity Pressure Visibility Wind Dir Wind Speed Gust Speed Precip Events Conditions
12:56 AM 45.0 °F 42.6 °F 42.1 °F 90% 30.35 in 10.0 mi North 4.6 mph - N/A   Clear
1:56 AM 45.0 °F 43.5 °F 41.0 °F 86% 30.35 in 10.0 mi NNW 3.5 mph - N/A   Clear
2:56 AM 44.1 °F - 41.0 °F 89% 30.34 in 10.0 mi Calm Calm - N/A   Clear
3:56 AM 44.1 °F 42.5 °F 41.0 °F 89% 30.34 in 10.0 mi NNW 3.5 mph - N/A   Clear
4:56 AM 41.0 °F - 39.0 °F 93% 30.35 in 10.0 mi Calm Calm - N/A   Clear
5:56 AM 39.9 °F 37.8 °F 39.0 °F 97% 30.37 in 10.0 mi NNW 3.5 mph - N/A   Clear
6:56 AM 41.0 °F - 39.0 °F 93% 30.38 in 10.0 mi Calm Calm - N/A   Clear
7:56 AM 41.0 °F 39.0 °F 39.0 °F 93% 30.40 in 10.0 mi North 3.5 mph - N/A   Clear
8:56 AM 46.9 °F - 42.1 °F 83% 30.42 in 10.0 mi North 5.8 mph - N/A   Clear
9:56 AM 52.0 °F - 42.1 °F 69% 30.43 in 10.0 mi NNE 8.1 mph - N/A   Clear
10:56 AM 57.0 °F - 42.1 °F 57% 30.42 in 10.0 mi NE 9.2 mph - N/A   Clear
11:56 AM 60.1 °F - 39.9 °F 47% 30.40 in 10.0 mi NE 9.2 mph - N/A   Clear
12:56 PM 61.0 °F - 39.9 °F 46% 30.38 in 10.0 mi NE 6.9 mph - N/A   Clear
1:56 PM 62.1 °F - 39.0 °F 43% 30.35 in 10.0 mi ENE 4.6 mph - N/A   Clear
2:56 PM 64.9 °F - 37.9 °F 37% 30.33 in 10.0 mi North 11.5 mph 18.4 mph N/A   Clear
3:56 PM 64.0 °F - 37.9 °F 38% 30.32 in 10.0 mi NNE 8.1 mph - N/A   Clear
4:56 PM 64.0 °F - 37.0 °F 37% 30.32 in 10.0 mi North 5.8 mph - N/A   Clear
5:56 PM 60.1 °F - 39.0 °F 46% 30.32 in 10.0 mi NNE 6.9 mph - N/A   Clear
6:56 PM 55.9 °F - 39.0 °F 53% 30.33 in 10.0 mi North 5.8 mph - N/A   Clear
7:56 PM 46.0 °F - 43.0 °F 89% 30.33 in 10.0 mi Calm Calm - N/A   Clear
8:56 PM 45.0 °F - 43.0 °F 93% 30.33 in 10.0 mi Calm Calm - N/A   Clear
9:56 PM 45.0 °F - 43.0 °F 93% 30.33 in 10.0 mi Calm Calm - N/A   Clear
10:56 PM 43.0 °F - 41.0 °F 93% 30.32 in 10.0 mi Calm Calm - N/A   Clear
11:56 PM 42.1 °F - 41.0 °F 96% 30.31 in 9.0 mi Calm Calm - N/A   Clear